Regional Weather Roundup
Issued by NWS

Home | Current Version | Previous Version | Text Only | Print | Product List | Glossary Off
Versions: 1 2 3 4 5 6 7 8 9 10 11 12 13 14 15 16 17 18 19 20 21 22 23 24 25 26 27 28 29 30 31 32 33 34 35 36 37 38 39 40 41 42 43 44 45 46 47 48 49 50

000
ASUS43 KDMX 040603
RWRIA

WEATHER ROUNDUP FOR IOWA
NATIONAL WEATHER SERVICE DES MOINES IA
100 AM CDT WED MAY 04 2016

NOTE: "FAIR" INDICATES FEW OR NO CLOUDS BELOW 12,000 FEET WITH NO
SIGNIFICANT WEATHER AND/OR OBSTRUCTIONS TO VISIBILITY.

* - THESE STATIONS ARE NOT NWS STATIONS...THUS NOT UNDER NWS
QUALITY CONTROL.  THEY ALSO DO NOT REPORT WEATHER SUCH
AS PRECIPITATION OR FOG.

IAZ001>003-012>014-020>022-031>034-043>046-040700-
   NORTHWEST IOWA

CITY           SKY/WX    TMP DP  RH WIND       PRES   REMARKS
CARROLL *      PTCLDY    54  39  58 NW16      29.83S
CHEROKEE *     CLEAR     51  35  55 NW8       29.87R
DENISON *      CLEAR     55  37  50 N10       29.85R
LE MARS *      CLEAR     52  36  54 NW12      29.91R
ORANGE CITY *  CLEAR     54  36  50 N9        29.90R
SHELDON *      CLEAR     50  36  57 N13       29.88R
SIOUX CITY     CLEAR     57  34  41 N13       29.90R
6HR MIN TEMP:  54; 6HR MAX TEMP:  69;

SPENCER        CLEAR     52  33  48 N14       29.87R
6HR MIN TEMP:  51; 6HR MAX TEMP:  68;

STORM LAKE *   CLEAR     54  34  47 N15       29.86S
$$

IAZ055>058-069>071-079>083-090>094-040700-
   SOUTHWEST IOWA

CITY           SKY/WX    TMP DP  RH WIND       PRES   REMARKS
ATLANTIC *     MOCLDY    55  45  67 NW14      29.84R
AUDUBON *      CLEAR     55  43  62 NW9       29.85R
CLARINDA *       N/A    N/A N/A N/A MISG        N/A
COUNCIL BLFS * CLEAR     61  45  55 NW17      29.87R
CRESTON *      MOCLDY    54  46  76 NW12      29.82S
HARLAN  *      CLEAR     55  45  67 N12       29.89R
LAMONI         CLOUDY    57  44  62 W14       29.80F
6HR MIN TEMP:  56; 6HR MAX TEMP:  64;

RED OAK *      MOCLDY    57  46  67 W5        29.83F
SHENANDOAH *   CLOUDY    57  48  72 W8        29.85F
$$

IAZ047>049-059>061-072>074-084-040700-
   CENTRAL IOWA

CITY           SKY/WX    TMP DP  RH WIND       PRES   REMARKS
AMES           PTCLDY    58  36  43 NW17      29.76R
6HR MIN TEMP:  57; 6HR MAX TEMP:  66;

ANKENY *       PTCLDY    61  43  51 NW15      29.76S
BOONE *        CLEAR     57  34  41 NW15G22   29.77R
CHARITON *     CLOUDY    59  45  58 W12       29.76F
DES MOINES     MOCLDY    62  43  49 NW14      29.76S
6HR MIN TEMP:  58; 6HR MAX TEMP:  68; 6HR PCP: TRACE;

GRINNELL*      CLEAR     58  45  60 W16G22    29.72R
KNOXVILLE *    MOCLDY    57  45  62 W14       29.73S
MARSHALLTOWN   CLEAR     54  40  59 NW15      29.72R
6HR MIN TEMP:  54; 6HR MAX TEMP:  66; 6HR PCP: TRACE;

NEWTON *       PTCLDY    59  45  58 NW14G21   29.73S
PELLA *        CLEAR     57  46  66 W13       29.74S
PERRY *          N/A     59  39  47 NW13      29.80R
$$

IAZ004>006-015-016-023>025-035-036-040700-
   NORTH CENTRAL IOWA

CITY           SKY/WX    TMP DP  RH WIND       PRES   REMARKS
ALGONA *       CLEAR     54  34  47 N12G20    29.82R
CLARION *      PTCLDY    52  34  50 N13       29.78R
ESTHERVILLE    CLEAR     50  34  54 N15       29.84R
6HR MIN TEMP:  49; 6HR MAX TEMP:  67;

FORT DODGE *   PTCLDY    54  34  47 N9        29.81R
MASON CITY     CLEAR     51  35  54 NW13      29.78R
6HR MIN TEMP:  50; 6HR MAX TEMP:  66; 6HR PCP: TRACE;

FOREST CITY *  CLEAR     52  32  46 NW13      29.78R
WEBSTER CITY * PTCLDY    52  36  54 NW15      29.77R
IOWA FALLS *     N/A     53  37  54 NW14      29.75S
$$

IAZ007>011-017>019-026>030-037>042-050>054-066-040700-
   NORTHEAST IOWA

CITY           SKY/WX    TMP DP  RH WIND       PRES   REMARKS
CEDAR RAPIDS   PTCLDY    57  48  72 N6G20     29.68R
6HR MIN TEMP:  53; 6HR MAX TEMP:  64; 6HR PCP:  0.07;

CHARLES CITY * CLEAR     54  39  58 N14       29.74R
CLINTON *      LGT RAIN  50  48  93 E7        29.71F
DECORAH *      PTCLDY    52  46  82 N8G14     29.72R
DUBUQUE        CLOUDY    48  46  93 CALM      29.69F
6HR MIN TEMP:  48; 6HR MAX TEMP:  63; 6HR PCP:  0.39;

MONTICELLO *   PTCLDY    50  48  93 CALM      29.69F
OELWEIN *      CLEAR     50  46  87 NE5       29.71R
WATERLOO       CLEAR     52  44  74 N13       29.71
6HR MIN TEMP:  52; 6HR MAX TEMP:  69;

$$

IAZ064-065-067-068-078-040700-
   EAST CENTRAL IOWA

CITY           SKY/WX    TMP DP  RH WIND       PRES   REMARKS
DAVENPORT      LGT RAIN  50  47  89 NE20      29.72R
6HR MIN TEMP:  50; 6HR MAX TEMP:  64; 6HR PCP:  0.03;

IOWA CITY      CLOUDY    55  49  80 CALM      29.69F
6HR MIN TEMP:  55; 6HR MAX TEMP:  65; 6HR PCP:  0.04;

MT. PLEASANT * LGT RAIN  59  46  63 W13       29.71F
MUSCATINE *    LGT RAIN  55  48  76 NW9G20    29.70R
QUAD CITIES    TSTM      54  47  77 N18G31    29.71R
6HR MIN TEMP:  56; 6HR MAX TEMP:  65; 6HR PCP:  0.04;

$$

IAZ062-063-075>077-085>089-095>099-040700-
   SOUTHEAST IOWA

CITY           SKY/WX    TMP DP  RH WIND       PRES   REMARKS
BURLINGTON     CLOUDY    57  45  64 SW14      29.70F
6HR MIN TEMP:  57; 6HR MAX TEMP:  64;

FAIRFIELD *    CLOUDY    57  45  62 SW13      29.70F
FORT MADISON * CLOUDY    57  45  62 SW15G21   29.72F
KEOKUK *       PTCLDY    57  45  62 SW10      29.73F
OSKALOOSA *      N/A     55  46  71 W14       29.71F
OTTUMWA        CLOUDY    56  45  66 W12       29.71F
6HR MIN TEMP:  55; 6HR MAX TEMP:  64; 6HR PCP: TRACE;

WASHINGTON *   CLOUDY    55  48  76 W14       29.69F
$$

ABBREVIATIONS USED IN REMARKS
   TC - TEMPERATURES IN CELSIUS
  WCI - WIND CHILL INDEX
   HX - HEAT INDEX
  VSB - VISIBILITY
$$




USA.gov is the U.S. government's official web portal to all federal, state and local government web resources and services.